TimeCDT,TemperatureF,Dew PointF,Humidity,Sea Level PressureIn,VisibilityMPH,Wind Direction,Wind SpeedMPH,Gust SpeedMPH,PrecipitationIn,Events,Conditions,WindDirDegrees,DateUTC
12:55 AM,64.4,63.0,95,30.15,10.0,Calm,Calm,-,N/A,,Clear,0,2012-10-05 05:55:00
1:55 AM,63.5,62.4,96,30.14,10.0,NNW,3.5,-,N/A,,Clear,340,2012-10-05 06:55:00
2:55 AM,64.0,63.1,97,30.13,10.0,Calm,Calm,-,N/A,,Clear,0,2012-10-05 07:55:00
3:49 AM,64.4,62.6,94,30.12,9.0,Calm,Calm,-,N/A,,Partly Cloudy,0,2012-10-05 08:49:00
3:55 AM,63.9,63.1,97,30.12,9.0,Calm,Calm,-,N/A,,Scattered Clouds,0,2012-10-05 08:55:00
3:56 AM,64.4,62.6,94,30.12,10.0,Calm,Calm,-,N/A,,Mostly Cloudy,0,2012-10-05 08:56:00
3:59 AM,64.4,62.6,94,30.12,10.0,Calm,Calm,-,N/A,,Mostly Cloudy,0,2012-10-05 08:59:00
4:08 AM,64.4,62.6,94,30.12,10.0,North,3.5,-,N/A,,Mostly Cloudy,350,2012-10-05 09:08:00
4:32 AM,64.4,62.6,94,30.12,3.0,NNW,4.6,-,N/A,,Overcast,340,2012-10-05 09:32:00
4:33 AM,64.4,62.6,94,30.12,2.5,NNW,3.5,-,N/A,,Overcast,340,2012-10-05 09:33:00
4:34 AM,64.4,62.6,94,30.12,2.0,NNW,3.5,-,N/A,,Overcast,340,2012-10-05 09:34:00
4:35 AM,64.4,62.6,94,30.12,1.8,NNW,3.5,-,N/A,,Overcast,340,2012-10-05 09:35:00
4:37 AM,64.4,62.6,94,30.12,1.2,NNW,3.5,-,N/A,,Overcast,340,2012-10-05 09:37:00
4:43 AM,64.4,62.6,94,30.12,1.5,NNW,3.5,-,N/A,,Overcast,330,2012-10-05 09:43:00
4:49 AM,64.4,62.6,94,30.12,1.2,NNW,3.5,-,N/A,,Overcast,340,2012-10-05 09:49:00
4:50 AM,64.4,64.4,100,30.12,1.0,NNW,3.5,-,N/A,,Mist,340,2012-10-05 09:50:00
4:51 AM,64.4,64.4,100,30.12,0.8,NNW,3.5,-,N/A,,Mist,340,2012-10-05 09:51:00
4:55 AM,64.0,63.7,99,30.12,0.5,NNW,3.5,-,N/A,Fog,Fog,340,2012-10-05 09:55:00
5:16 AM,64.4,64.4,100,30.12,0.5,Calm,Calm,-,N/A,Fog,Fog,0,2012-10-05 10:16:00
5:25 AM,64.4,64.4,100,30.12,0.2,North,3.5,-,N/A,Fog,Fog,350,2012-10-05 10:25:00
5:37 AM,64.4,64.4,100,30.12,0.5,Calm,Calm,-,N/A,Fog,Fog,0,2012-10-05 10:37:00
5:46 AM,64.4,64.4,100,30.13,0.2,Calm,Calm,-,N/A,Fog,Fog,0,2012-10-05 10:46:00
5:55 AM,64.4,64.0,99,30.13,0.2,Calm,Calm,-,N/A,Fog,Fog,0,2012-10-05 10:55:00
6:55 AM,65.3,64.9,99,30.14,0.2,Calm,Calm,-,N/A,Fog,Fog,0,2012-10-05 11:55:00
7:55 AM,65.8,65.5,99,30.14,0.2,NNE,4.6,-,N/A,Fog,Fog,20,2012-10-05 12:55:00
8:01 AM,66.2,66.2,100,30.14,0.2,NE,4.6,-,N/A,Fog,Fog,40,2012-10-05 13:01:00
8:19 AM,66.2,66.2,100,30.14,0.5,NNE,4.6,-,N/A,Fog,Fog,30,2012-10-05 13:19:00
8:35 AM,66.2,66.2,100,30.14,0.8,NNE,4.6,-,N/A,,Mist,20,2012-10-05 13:35:00
8:50 AM,66.2,66.2,100,30.14,0.5,North,6.9,-,N/A,Fog,Fog,10,2012-10-05 13:50:00
8:55 AM,66.9,66.7,99,30.14,0.5,North,4.6,-,N/A,Fog,Fog,10,2012-10-05 13:55:00
9:10 AM,68.0,68.0,100,30.14,0.8,North,5.8,-,N/A,,Mist,10,2012-10-05 14:10:00
9:40 AM,68.0,68.0,100,30.14,1.2,NNE,3.5,-,N/A,,Overcast,20,2012-10-05 14:40:00
9:55 AM,68.9,68.7,99,30.14,2.0,NE,4.6,-,N/A,,Overcast,50,2012-10-05 14:55:00
10:20 AM,69.8,69.8,100,30.13,4.0,ENE,4.6,-,N/A,,Overcast,60,2012-10-05 15:20:00
10:36 AM,71.6,71.6,100,30.13,6.0,NNE,3.5,-,N/A,,Mostly Cloudy,30,2012-10-05 15:36:00
10:55 AM,72.5,72.3,99,30.14,10.0,NE,2.3,-,N/A,,Mostly Cloudy,50,2012-10-05 15:55:00
11:55 AM,76.5,72.9,89,30.12,10.0,North,3.5,-,N/A,,Mostly Cloudy,10,2012-10-05 16:55:00
12:55 PM,81.0,71.1,72,30.09,10.0,East,8.1,-,N/A,,Mostly Cloudy,100,2012-10-05 17:55:00
1:55 PM,81.9,71.1,70,30.06,10.0,ENE,4.6,-,N/A,,Mostly Cloudy,60,2012-10-05 18:55:00
2:55 PM,82.4,69.6,65,30.03,10.0,East,4.6,-,N/A,,Mostly Cloudy,90,2012-10-05 19:55:00
3:55 PM,85.1,68.5,57,30.01,10.0,SE,6.9,-,N/A,,Mostly Cloudy,130,2012-10-05 20:55:00
4:55 PM,82.2,69.6,66,30.01,10.0,East,3.5,-,N/A,,Mostly Cloudy,80,2012-10-05 21:55:00
5:55 PM,81.7,70.0,68,30.01,10.0,East,4.6,-,N/A,,Scattered Clouds,100,2012-10-05 22:55:00
6:55 PM,75.7,70.0,82,30.01,10.0,Calm,Calm,-,N/A,,Scattered Clouds,0,2012-10-05 23:55:00
7:55 PM,73.9,70.5,89,30.02,10.0,SSE,3.5,-,N/A,,Partly Cloudy,150,2012-10-06 00:55:00
8:59 PM,71.6,69.3,92,30.05,10.0,East,3.5,-,N/A,,Partly Cloudy,80,2012-10-06 01:59:00
9:55 PM,72.5,69.8,91,30.04,10.0,Calm,Calm,-,N/A,,Partly Cloudy,0,2012-10-06 02:55:00
10:55 PM,72.1,70.0,93,30.04,10.0,ESE,4.6,-,N/A,,Partly Cloudy,110,2012-10-06 03:55:00
11:55 PM,72.1,69.8,92,30.04,10.0,Calm,Calm,-,N/A,,Partly Cloudy,0,2012-10-06 04:55:00